Greybull, WY

2:54 PM MST on November 18, 2017 (GMT -0700)
South Big Horn County

Weather History for KGEY - March, 2014

Change the Weather History Date:

Sunday, March 2, 2014

  Actual Average Record
Temperature  
Mean Temperature 1 °F 31 °F  
Max Temperature 11 °F 44 °F 60 °F (2009)
Min Temperature -9 °F 18 °F -9 °F (2014)
Degree Days  
Heating Degree Days 64 34  
Month to date heating degree days 130 69  
Since 1 July heating degree days 6017 6040  
Cooling Degree Days 0 0  
Month to date cooling degree days 0 0  
Year to date cooling degree days 0 0  
Moisture  
Dew Point -7 °F    
Average Humidity 68    
Maximum Humidity 83    
Minimum Humidity 52    
Precipitation  
Precipitation 0.00 in 0.00 in 0.25 in (1966)
Month to date precipitation T 0.01  
Year to date precipitation 0.26 0.42  
Sea Level Pressure  
Sea Level Pressure 30.34 in    
Wind  
Wind Speed 3 mph (SE)    
Max Wind Speed 10 mph    
Max Gust Speed 12 mph    
Visibility 10 miles    
Events      
T = Trace of Precipitation, MM = Missing Value Source: NWS Daily Summary

Daily Weather History Graph

Daily Weather History Graph

Search for Another Location

Airport or City:

Trip Planner

Search our weather history database for the weather conditions in past years. The results will help you decide how hot, cold, wet, or windy it might be!

Date:

Astronomy

Mar. 02, 2014 Rise Set
Actual Time 6:47 AM MST 6:01 PM MST
Civil Twilight 6:18 AM MST 6:30 PM MST
Nautical Twilight 5:45 AM MST 7:04 PM MST
Astronomical Twilight 5:11 AM MST 7:38 PM MST
Moon 7:16 AM MST (3/2) 8:07 PM MST (3/2)
Length of Visible Light 12h 12m
Length of Day
11h 13m
Waxing Crescent, 3% of the Moon is Illuminated
Mar 2
Waxing Crescent
Mar 8
First Quarter
Mar 16
Full
Mar 23
Last Quarter
Mar 30
New

Hourly Weather History & Observations

Time (MST) Temp. Windchill Dew Point Humidity Pressure Visibility Wind Dir Wind Speed Gust Speed Precip Events Conditions
12:53 AM -7.1 °F - -13.0 °F 75% 30.46 in 10.0 mi Calm Calm - N/A   Overcast
1:53 AM -7.1 °F -15.9 °F -13.0 °F 75% 30.45 in 10.0 mi WSW 3.5 mph - N/A   Overcast
2:53 AM -6.0 °F - -13.0 °F 72% 30.44 in 10.0 mi Calm Calm - N/A   Overcast
3:53 AM -6.0 °F -16.9 °F -13.0 °F 72% 30.41 in 10.0 mi SSE 4.6 mph - N/A   Overcast
4:53 AM -6.0 °F - -11.9 °F 75% 30.45 in 10.0 mi Calm Calm - N/A   Overcast
5:53 AM -6.0 °F -18.6 °F -13.0 °F 72% 30.42 in 10.0 mi SE 5.8 mph - N/A   Overcast
6:53 AM -8.0 °F -22.5 °F -14.1 °F 75% 30.44 in 10.0 mi SSW 6.9 mph - N/A   Clear
7:53 AM -6.0 °F -14.7 °F -11.9 °F 75% 30.47 in 10.0 mi ESE 3.5 mph - N/A   Clear
8:53 AM -4.0 °F -16.3 °F -11.0 °F 72% 30.42 in 10.0 mi SE 5.8 mph - N/A   Overcast
9:53 AM -2.0 °F -10.1 °F -9.9 °F 69% 30.42 in 10.0 mi SE 3.5 mph - N/A   Overcast
10:53 AM 1.0 °F -8.7 °F -8.0 °F 66% 30.40 in 10.0 mi ENE 4.6 mph - N/A   Clear
11:53 AM 3.0 °F - -7.1 °F 63% 30.38 in 10.0 mi Calm Calm - N/A   Scattered Clouds
12:53 PM 5.0 °F - -5.1 °F 63% 30.34 in 10.0 mi Calm Calm - N/A   Clear
1:53 PM 6.1 °F -0.9 °F -4.0 °F 63% 30.31 in 10.0 mi WSW 3.5 mph - N/A   Mostly Cloudy
2:53 PM 10.0 °F 3.6 °F -4.0 °F 53% 30.27 in 10.0 mi NW 3.5 mph - N/A   Clear
3:53 PM 9.0 °F 2.4 °F -2.0 °F 61% 30.26 in 10.0 mi Variable 3.5 mph - N/A   Clear
4:53 PM 9.0 °F 0.6 °F -2.0 °F 61% 30.25 in 10.0 mi South 4.6 mph - N/A   Clear
5:53 PM 8.1 °F - -2.0 °F 64% 30.26 in 10.0 mi Calm Calm - N/A   Clear
6:53 PM 5.0 °F -4.1 °F -2.0 °F 73% 30.27 in 10.0 mi East 4.6 mph - N/A   Clear
7:53 PM 5.0 °F -2.1 °F -2.0 °F 73% 30.25 in 10.0 mi East 3.5 mph - N/A   Clear
8:53 PM 5.0 °F -5.6 °F -2.0 °F 73% 30.23 in 10.0 mi ESE 5.8 mph - N/A   Clear
9:53 PM 5.0 °F - -0.9 °F 76% 30.22 in 10.0 mi Calm Calm - N/A   Clear
10:53 PM 5.0 °F - -0.9 °F 76% 30.19 in 10.0 mi Calm Calm - N/A   Clear
11:53 PM 6.1 °F - -0.0 °F 76% 30.16 in 10.0 mi Calm Calm - N/A   Mostly Cloudy